| time (UTC) | temp F | wind direction | speed MPH | gust MPH | rain 1hr in | rain 24hr in | rain mn in | humidity % | barometer mb |
| 20260508044042 | 53 | 190 | 4.0 | 12.0 | 0.00 | 0.00 | 0.00 | 43 | 1021.2 |
| 20260508043538 | 53 | 190 | 6.0 | 12.0 | 0.00 | 0.00 | 0.00 | 43 | 1021.0 |
| 20260508043052 | 52 | 190 | 5.0 | 9.0 | 0.00 | 0.00 | 0.00 | 44 | 1021.1 |
| 20260508042539 | 51 | 190 | 4.0 | 8.0 | 0.00 | 0.00 | 0.00 | 46 | 1021.1 |
| 20260508042041 | 51 | 190 | 1.0 | 3.0 | 0.00 | 0.00 | 0.00 | 45 | 1021.1 |
| 20260508041543 | 52 | 190 | 0.0 | 3.0 | 0.00 | 0.00 | 0.00 | 45 | 1021.2 |
| 20260508041039 | 52 | 190 | 2.0 | 3.0 | 0.00 | 0.00 | 0.00 | 44 | 1021.2 |
| 20260508040538 | 52 | 190 | 0.0 | 7.0 | 0.00 | 0.00 | 0.00 | 44 | 1021.1 |
| 20260508040050 | 53 | 190 | 3.0 | 7.0 | 0.00 | 0.00 | 0.00 | 43 | 1021.2 |
| 20260508035539 | 53 | 190 | 3.0 | 7.0 | 0.00 | 0.00 | 0.00 | 43 | 1021.2 |
| 20260508035039 | 53 | 190 | 3.0 | 7.0 | 0.00 | 0.00 | 0.00 | 43 | 1021.2 |
| 20260508034551 | 53 | 190 | 2.0 | 5.0 | 0.00 | 0.00 | 0.00 | 43 | 1021.2 |
| 20260508034039 | 53 | 190 | 2.0 | 5.0 | 0.00 | 0.00 | 0.00 | 43 | 1021.1 |
| 20260508033538 | 53 | 190 | 3.0 | 6.0 | 0.00 | 0.00 | 0.00 | 43 | 1021.1 |
| 20260508033055 | 54 | 190 | 3.0 | 6.0 | 0.00 | 0.00 | 0.00 | 42 | 1021.0 |
| 20260508032541 | 54 | 190 | 3.0 | 6.0 | 0.00 | 0.00 | 0.00 | 42 | 1021.0 |
| 20260508032041 | 54 | 190 | 3.0 | 6.0 | 0.00 | 0.00 | 0.00 | 41 | 1021.0 |
| 20260508031554 | 54 | 190 | 2.0 | 7.0 | 0.00 | 0.00 | 0.00 | 41 | 1020.8 |
| 20260508031038 | 54 | 190 | 3.0 | 7.0 | 0.00 | 0.00 | 0.00 | 41 | 1020.7 |
| 20260508030538 | 54 | 190 | 3.0 | 10.0 | 0.00 | 0.00 | 0.00 | 41 | 1020.7 |
| 20260508030059 | 54 | 190 | 5.0 | 10.0 | 0.00 | 0.00 | 0.00 | 40 | 1020.6 |
| 20260508025542 | 54 | 190 | 4.0 | 12.0 | 0.00 | 0.00 | 0.00 | 41 | 1020.6 |
| 20260508025039 | 55 | 190 | 3.0 | 12.0 | 0.00 | 0.00 | 0.00 | 40 | 1020.6 |
| 20260508024601 | 55 | 190 | 3.0 | 9.0 | 0.00 | 0.00 | 0.00 | 39 | 1020.6 |
| 20260508024040 | 55 | 190 | 4.0 | 10.0 | 0.00 | 0.00 | 0.00 | 38 | 1020.4 |
| 20260508023538 | 54 | 190 | 3.0 | 10.0 | 0.00 | 0.00 | 0.00 | 38 | 1020.4 |
| 20260508023053 | 54 | 190 | 4.0 | 10.0 | 0.00 | 0.00 | 0.00 | 39 | 1020.3 |
| 20260508022540 | 54 | 190 | 5.0 | 9.0 | 0.00 | 0.00 | 0.00 | 39 | 1020.3 |
| 20260508022039 | 55 | 190 | 2.0 | 6.0 | 0.00 | 0.00 | 0.00 | 38 | 1020.2 |
| 20260508021558 | 55 | 190 | 1.0 | 5.0 | 0.00 | 0.00 | 0.00 | 37 | 1020.1 |
| 20260508021039 | 55 | 190 | 1.0 | 4.0 | 0.00 | 0.00 | 0.00 | 37 | 1020.0 |
| 20260508020538 | 55 | 190 | 1.0 | 7.0 | 0.00 | 0.00 | 0.00 | 37 | 1019.9 |
| 20260508020054 | 55 | 190 | 2.0 | 7.0 | 0.00 | 0.00 | 0.00 | 37 | 1020.0 |
| 20260508015538 | 56 | 190 | 4.0 | 7.0 | 0.00 | 0.00 | 0.00 | 36 | 1019.9 |
| 20260508015038 | 55 | 190 | 0.0 | 6.0 | 0.00 | 0.00 | 0.00 | 38 | 1019.9 |
| 20260508014552 | 56 | 190 | 2.0 | 6.0 | 0.00 | 0.00 | 0.00 | 37 | 1019.8 |
| 20260508014039 | 56 | 190 | 3.0 | 7.0 | 0.00 | 0.00 | 0.00 | 37 | 1019.8 |
| 20260508013538 | 56 | 190 | 2.0 | 7.0 | 0.00 | 0.00 | 0.00 | 36 | 1019.7 |
| 20260508013043 | 56 | 190 | 3.0 | 7.0 | 0.00 | 0.00 | 0.00 | 35 | 1019.7 |
| 20260508012539 | 56 | 0 | 1.0 | 3.0 | 0.00 | 0.00 | 0.00 | 35 | 1019.7 |
| 20260508012039 | 56 | 190 | 1.0 | 6.0 | 0.00 | 0.00 | 0.00 | 35 | 1019.8 |
| 20260508011548 | 57 | 190 | 2.0 | 6.0 | 0.00 | 0.00 | 0.00 | 34 | 1019.7 |
| 20260508011039 | 57 | 190 | 4.0 | 8.0 | 0.00 | 0.00 | 0.00 | 33 | 1019.7 |
| 20260508010539 | 58 | 190 | 2.0 | 8.0 | 0.00 | 0.00 | 0.00 | 33 | 1019.7 |
| 20260508010052 | 58 | 190 | 4.0 | 9.0 | 0.00 | 0.00 | 0.00 | 33 | 1019.7 |
| 20260508005541 | 58 | 190 | 5.0 | 9.0 | 0.00 | 0.00 | 0.00 | 32 | 1019.8 |
| 20260508005039 | 58 | 190 | 4.0 | 12.0 | 0.00 | 0.00 | 0.00 | 33 | 1019.8 |
| 20260508004551 | 59 | 190 | 5.0 | 12.0 | 0.00 | 0.00 | 0.00 | 33 | 1019.8 |
| 20260508004039 | 59 | 190 | 5.0 | 12.0 | 0.00 | 0.00 | 0.00 | 33 | 1019.9 |
| 20260508003538 | 59 | 190 | 3.0 | 11.0 | 0.00 | 0.00 | 0.00 | 33 | 1019.9 |
| 20260508003044 | 60 | 190 | 4.0 | 11.0 | 0.00 | 0.00 | 0.00 | 33 | 1019.9 |
| 20260508002538 | 60 | 190 | 3.0 | 10.0 | 0.00 | 0.00 | 0.00 | 34 | 1020.0 |
| 20260508002038 | 60 | 190 | 5.0 | 14.0 | 0.00 | 0.00 | 0.00 | 33 | 1020.0 |
| 20260508001548 | 60 | 190 | 6.0 | 14.0 | 0.00 | 0.00 | 0.00 | 33 | 1020.0 |
| 20260508001038 | 60 | 190 | 9.0 | 14.0 | 0.00 | 0.00 | 0.00 | 32 | 1019.9 |
| 20260508000538 | 60 | 190 | 8.0 | 14.0 | 0.00 | 0.00 | 0.00 | 32 | 1019.9 |
| 20260508000052 | 60 | 190 | 9.0 | 13.0 | 0.00 | 0.00 | 0.00 | 32 | 1019.9 |
| 20260507235539 | 61 | 190 | 8.0 | 17.0 | 0.00 | 0.00 | 0.00 | 32 | 1019.9 |
| 20260507235038 | 60 | 190 | 8.0 | 17.0 | 0.00 | 0.00 | 0.00 | 33 | 1019.8 |
| 20260507234545 | 60 | 190 | 9.0 | 16.0 | 0.00 | 0.00 | 0.00 | 32 | 1019.8 |
| 20260507234038 | 60 | 190 | 10.0 | 16.0 | 0.00 | 0.00 | 0.00 | 32 | 1019.7 |
| 20260507233538 | 60 | 190 | 6.0 | 12.0 | 0.00 | 0.00 | 0.00 | 33 | 1019.7 |
| 20260507233046 | 59 | 190 | 4.0 | 9.0 | 0.00 | 0.00 | 0.00 | 35 | 1019.7 |
| 20260507232539 | 59 | 190 | 5.0 | 7.0 | 0.00 | 0.00 | 0.00 | 34 | 1019.7 |
| 20260507232038 | 59 | 190 | 1.0 | 11.0 | 0.00 | 0.00 | 0.00 | 33 | 1019.7 |
| 20260507231552 | 59 | 190 | 4.0 | 11.0 | 0.00 | 0.00 | 0.00 | 33 | 1019.7 |
| 20260507231038 | 59 | 190 | 3.0 | 11.0 | 0.00 | 0.00 | 0.00 | 32 | 1019.6 |
| 20260507230541 | 59 | 190 | 6.0 | 9.0 | 0.00 | 0.00 | 0.00 | 33 | 1019.7 |
| 20260507225535 | 59 | 190 | 4.0 | 14.0 | 0.00 | 0.00 | 0.00 | 32 | 1019.6 |
| 20260507225034 | 60 | 190 | 5.0 | 14.0 | 0.00 | 0.00 | 0.00 | 31 | 1019.6 |
| 20260507224540 | 60 | 190 | 5.0 | 14.0 | 0.00 | 0.00 | 0.00 | 29 | 1019.6 |
| 20260507224041 | 61 | 190 | 5.0 | 14.0 | 0.00 | 0.00 | 0.00 | 30 | 1019.6 |
| 20260507223540 | 61 | 190 | 6.0 | 15.0 | 0.00 | 0.00 | 0.00 | 28 | 1019.6 |
| 20260507223049 | 63 | 190 | 6.0 | 15.0 | 0.00 | 0.00 | 0.00 | 29 | 1019.6 |
| 20260507222539 | 63 | 190 | 3.0 | 13.0 | 0.00 | 0.00 | 0.00 | 29 | 1019.5 |
| 20260507222038 | 61 | 190 | 2.0 | 13.0 | 0.00 | 0.00 | 0.00 | 29 | 1019.5 |
| 20260507221551 | 61 | 190 | 7.0 | 13.0 | 0.00 | 0.00 | 0.00 | 29 | 1019.6 |
| 20260507221039 | 62 | 190 | 5.0 | 19.0 | 0.00 | 0.00 | 0.00 | 29 | 1019.6 |
| 20260507220542 | 62 | 190 | 7.0 | 19.0 | 0.00 | 0.00 | 0.00 | 30 | 1019.9 |
| 20260507220052 | 63 | 190 | 6.0 | 12.0 | 0.00 | 0.00 | 0.00 | 30 | 1019.9 |
| 20260507215539 | 63 | 190 | 2.0 | 15.0 | 0.00 | 0.00 | 0.00 | 31 | 1019.8 |
| 20260507215038 | 63 | 190 | 4.0 | 15.0 | 0.00 | 0.00 | 0.00 | 30 | 1019.9 |
| 20260507214551 | 63 | 190 | 5.0 | 15.0 | 0.00 | 0.00 | 0.00 | 29 | 1019.9 |
| 20260507214038 | 63 | 190 | 3.0 | 9.0 | 0.00 | 0.00 | 0.00 | 31 | 1020.0 |
| 20260507213538 | 63 | 190 | 3.0 | 9.0 | 0.00 | 0.00 | 0.00 | 29 | 1020.1 |
| 20260507213045 | 62 | 190 | 4.0 | 9.0 | 0.00 | 0.00 | 0.00 | 32 | 1020.2 |
| 20260507212538 | 61 | 190 | 4.0 | 10.0 | 0.00 | 0.00 | 0.00 | 33 | 1020.2 |
| 20260507212038 | 60 | 190 | 5.0 | 10.0 | 0.00 | 0.00 | 0.00 | 32 | 1020.3 |
| 20260507211546 | 60 | 190 | 2.0 | 9.0 | 0.00 | 0.00 | 0.00 | 33 | 1020.4 |
| 20260507211038 | 60 | 190 | 3.0 | 12.0 | 0.00 | 0.00 | 0.00 | 34 | 1020.5 |
| 20260507210535 | 60 | 190 | 5.0 | 12.0 | 0.00 | 0.00 | 0.00 | 33 | 1020.6 |
| 20260507210105 | 61 | 190 | 3.0 | 7.0 | 0.00 | 0.00 | 0.00 | 34 | 1020.5 |
| 20260507205539 | 61 | 190 | 3.0 | 7.0 | 0.00 | 0.00 | 0.00 | 34 | 1020.6 |
| 20260507205039 | 60 | 190 | 3.0 | 10.0 | 0.00 | 0.00 | 0.00 | 33 | 1020.7 |
| 20260507204544 | 60 | 190 | 5.0 | 10.0 | 0.00 | 0.00 | 0.00 | 32 | 1020.8 |
| 20260507204039 | 62 | 190 | 2.0 | 7.0 | 0.00 | 0.00 | 0.00 | 36 | 1020.7 |
| 20260507203539 | 61 | 190 | 1.0 | 7.0 | 0.00 | 0.00 | 0.00 | 34 | 1020.8 |
| 20260507203112 | 61 | 190 | 3.0 | 10.0 | 0.00 | 0.00 | 0.00 | 33 | 1020.8 |
| 20260507202540 | 61 | 190 | 5.0 | 10.0 | 0.00 | 0.00 | 0.00 | 34 | 1020.8 |
| 20260507202043 | 62 | 190 | 2.0 | 6.0 | 0.00 | 0.00 | 0.00 | 32 | 1020.7 |
| 20260507201545 | 62 | 190 | 1.0 | 6.0 | 0.00 | 0.00 | 0.00 | 35 | 1020.8 |
| 20260507201039 | 61 | 190 | 3.0 | 6.0 | 0.00 | 0.00 | 0.00 | 37 | 1020.9 |
| 20260507200538 | 62 | 190 | 2.0 | 7.0 | 0.00 | 0.00 | 0.00 | 34 | 1021.0 |
| 20260507200053 | 62 | 190 | 2.0 | 7.0 | 0.00 | 0.00 | 0.00 | 35 | 1021.0 |
| 20260507195541 | 60 | 190 | 2.0 | 8.0 | 0.00 | 0.00 | 0.00 | 42 | 1021.1 |
| 20260507195035 | 60 | 190 | 1.0 | 8.0 | 0.00 | 0.00 | 0.00 | 35 | 1021.2 |
| 20260507194601 | 59 | 190 | 4.0 | 9.0 | 0.00 | 0.00 | 0.00 | 35 | 1021.3 |
| 20260507194035 | 58 | 190 | 2.0 | 9.0 | 0.00 | 0.00 | 0.00 | 37 | 1021.4 |
| 20260507193539 | 58 | 190 | 4.0 | 9.0 | 0.00 | 0.00 | 0.00 | 36 | 1021.5 |
| 20260507193052 | 59 | 190 | 3.0 | 10.0 | 0.00 | 0.00 | 0.00 | 36 | 1021.6 |
| 20260507192538 | 57 | 190 | 2.0 | 10.0 | 0.00 | 0.00 | 0.00 | 42 | 1021.6 |
| 20260507192038 | 57 | 190 | 3.0 | 8.0 | 0.00 | 0.00 | 0.00 | 37 | 1021.7 |
| 20260507191550 | 57 | 190 | 2.0 | 8.0 | 0.00 | 0.00 | 0.00 | 38 | 1021.7 |
| 20260507191038 | 56 | 190 | 1.0 | 7.0 | 0.00 | 0.00 | 0.00 | 39 | 1021.8 |
| 20260507190539 | 55 | 190 | 3.0 | 7.0 | 0.00 | 0.00 | 0.00 | 40 | 1021.9 |
| 20260507190053 | 56 | 190 | 3.0 | 9.0 | 0.00 | 0.00 | 0.00 | 43 | 1021.9 |
| 20260507185539 | 55 | 190 | 2.0 | 10.0 | 0.00 | 0.00 | 0.00 | 45 | 1022.1 |
| 20260507185038 | 54 | 190 | 5.0 | 11.0 | 0.00 | 0.00 | 0.00 | 40 | 1022.2 |
| 20260507184543 | 54 | 190 | 4.0 | 11.0 | 0.00 | 0.00 | 0.00 | 41 | 1022.3 |
| 20260507184036 | 54 | 190 | 5.0 | 10.0 | 0.00 | 0.00 | 0.00 | 39 | 1022.3 |
| 20260507183535 | 54 | 190 | 2.0 | 10.0 | 0.00 | 0.00 | 0.00 | 39 | 1022.5 |
| 20260507183043 | 53 | 190 | 4.0 | 11.0 | 0.00 | 0.00 | 0.00 | 38 | 1022.6 |
| 20260507182538 | 53 | 190 | 4.0 | 11.0 | 0.00 | 0.00 | 0.00 | 42 | 1022.8 |
| 20260507182038 | 53 | 190 | 3.0 | 10.0 | 0.00 | 0.00 | 0.00 | 39 | 1022.8 |
| 20260507181542 | 52 | 190 | 2.0 | 10.0 | 0.00 | 0.00 | 0.00 | 40 | 1022.9 |
| 20260507181039 | 52 | 190 | 6.0 | 10.0 | 0.00 | 0.00 | 0.00 | 40 | 1023.0 |
| 20260507180539 | 51 | 190 | 2.0 | 10.0 | 0.00 | 0.00 | 0.00 | 41 | 1023.2 |
| 20260507180048 | 51 | 190 | 4.0 | 7.0 | 0.00 | 0.00 | 0.00 | 41 | 1023.3 |
| 20260507175540 | 51 | 190 | 3.0 | 8.0 | 0.00 | 0.01 | 0.00 | 40 | 1023.5 |
| 20260507175036 | 50 | 190 | 3.0 | 8.0 | 0.00 | 0.01 | 0.00 | 41 | 1023.6 |
| 20260507174548 | 50 | 190 | 1.0 | 12.0 | 0.00 | 0.01 | 0.00 | 43 | 1023.7 |
| 20260507174038 | 48 | 190 | 2.0 | 12.0 | 0.00 | 0.01 | 0.00 | 42 | 1023.9 |
| 20260507173535 | 48 | 190 | 5.0 | 9.0 | 0.00 | 0.01 | 0.00 | 41 | 1023.9 |
| 20260507173114 | 48 | 190 | 3.0 | 7.0 | 0.00 | 0.01 | 0.00 | 44 | 1023.9 |
| 20260507172536 | 48 | 190 | 3.0 | 8.0 | 0.00 | 0.01 | 0.00 | 40 | 1024.1 |
| 20260507172036 | 47 | 190 | 2.0 | 8.0 | 0.00 | 0.01 | 0.00 | 43 | 1024.3 |
| 20260507171545 | 48 | 190 | 2.0 | 5.0 | 0.00 | 0.01 | 0.00 | 41 | 1024.4 |
| 20260507171035 | 47 | 190 | 1.0 | 4.0 | 0.00 | 0.01 | 0.00 | 46 | 1024.5 |
| 20260507170536 | 46 | 190 | 0.0 | 4.0 | 0.00 | 0.01 | 0.00 | 45 | 1024.6 |
| 20260507170044 | 46 | 190 | 2.0 | 4.0 | 0.00 | 0.01 | 0.00 | 43 | 1024.8 |
| 20260507165538 | 47 | 190 | 0.0 | 5.0 | 0.00 | 0.06 | 0.00 | 42 | 1024.8 |
| 20260507165039 | 46 | 190 | 1.0 | 5.0 | 0.00 | 0.06 | 0.00 | 43 | 1025.0 |
| 20260507164547 | 45 | 190 | 1.0 | 4.0 | 0.00 | 0.06 | 0.00 | 45 | 1025.1 |
| 20260507164039 | 44 | 190 | 1.0 | 3.0 | 0.00 | 0.06 | 0.00 | 43 | 1025.2 |
| 20260507163543 | 44 | 0 | 1.0 | 5.0 | 0.00 | 0.06 | 0.00 | 47 | 1025.3 |
| 20260507163044 | 43 | 190 | 1.0 | 5.0 | 0.00 | 0.06 | 0.00 | 47 | 1025.3 |
| 20260507162539 | 42 | 190 | 1.0 | 5.0 | 0.00 | 0.06 | 0.00 | 49 | 1025.5 |
| 20260507162038 | 41 | 190 | 1.0 | 5.0 | 0.00 | 0.06 | 0.00 | 50 | 1025.5 |
| 20260507161550 | 40 | 190 | 0.0 | 4.0 | 0.00 | 0.06 | 0.00 | 53 | 1025.6 |
| 20260507161038 | 40 | 190 | 2.0 | 4.0 | 0.00 | 0.06 | 0.00 | 53 | 1025.6 |
| 20260507160536 | 40 | 190 | 1.0 | 4.0 | 0.00 | 0.06 | 0.00 | 51 | 1025.8 |
| 20260507160059 | 42 | 190 | 0.0 | 3.0 | 0.00 | 0.06 | 0.00 | 48 | 1025.8 |
| 20260507155538 | 40 | 190 | 0.0 | 4.0 | 0.00 | 0.07 | 0.00 | 54 | 1025.8 |
| 20260507155036 | 39 | 190 | 2.0 | 4.0 | 0.00 | 0.07 | 0.00 | 57 | 1025.9 |
| 20260507154546 | 39 | 190 | 1.0 | 3.0 | 0.00 | 0.07 | 0.00 | 53 | 1025.9 |
| 20260507154036 | 38 | 190 | 1.0 | 3.0 | 0.00 | 0.07 | 0.00 | 55 | 1026.0 |
| 20260507153537 | 38 | 190 | 0.0 | 3.0 | 0.00 | 0.07 | 0.00 | 58 | 1026.1 |
| 20260507153050 | 37 | 190 | 0.0 | 3.0 | 0.00 | 0.07 | 0.00 | 57 | 1026.1 |
| 20260507152535 | 37 | 190 | 1.0 | 4.0 | 0.00 | 0.07 | 0.00 | 55 | 1026.2 |
| 20260507152035 | 37 | 190 | 1.0 | 4.0 | 0.00 | 0.07 | 0.00 | 57 | 1026.2 |
| 20260507151547 | 37 | 0 | 0.0 | 3.0 | 0.00 | 0.07 | 0.00 | 62 | 1026.3 |
| 20260507151034 | 36 | 190 | 0.0 | 3.0 | 0.00 | 0.07 | 0.00 | 62 | 1026.4 |
| 20260507150535 | 35 | 190 | 1.0 | 4.0 | 0.00 | 0.07 | 0.00 | 62 | 1026.5 |
| 20260507150048 | 35 | 190 | 1.0 | 4.0 | 0.00 | 0.07 | 0.00 | 62 | 1026.5 |
| 20260507145536 | 34 | 0 | 0.0 | 4.0 | 0.00 | 0.15 | 0.00 | 66 | 1026.6 |
| 20260507145035 | 33 | 190 | 1.0 | 2.0 | 0.00 | 0.15 | 0.00 | 65 | 1026.7 |
| 20260507144545 | 34 | 190 | 0.0 | 2.0 | 0.00 | 0.15 | 0.00 | 65 | 1026.7 |
| 20260507144040 | 33 | 0 | 0.0 | 3.0 | 0.00 | 0.15 | 0.00 | 66 | 1026.7 |
| 20260507143539 | 33 | 190 | 1.0 | 3.0 | 0.00 | 0.15 | 0.00 | 67 | 1026.7 |
| 20260507143057 | 33 | 190 | 0.0 | 3.0 | 0.00 | 0.15 | 0.00 | 68 | 1026.8 |
| 20260507142535 | 33 | 190 | 1.0 | 3.0 | 0.00 | 0.15 | 0.00 | 67 | 1026.9 |
| 20260507142035 | 32 | 190 | 0.0 | 3.0 | 0.00 | 0.15 | 0.00 | 68 | 1026.9 |
| 20260507141558 | 32 | 190 | 0.0 | 3.0 | 0.00 | 0.15 | 0.00 | 67 | 1026.9 |
| 20260507141035 | 32 | 190 | 0.0 | 3.0 | 0.00 | 0.15 | 0.00 | 69 | 1026.9 |
| 20260507140537 | 31 | 190 | 0.0 | 2.0 | 0.00 | 0.15 | 0.00 | 71 | 1027.0 |
| 20260507140041 | 29 | 0 | 0.0 | 2.0 | 0.00 | 0.15 | 0.00 | 74 | 1027.0 |
| 20260507135537 | 28 | 0 | 0.0 | 2.0 | 0.00 | 0.19 | 0.00 | 73 | 1026.9 |
| 20260507135037 | 27 | 190 | 0.0 | 1.0 | 0.00 | 0.19 | 0.00 | 73 | 1026.9 |
| 20260507134554 | 27 | 190 | 0.0 | 1.0 | 0.00 | 0.19 | 0.00 | 73 | 1026.9 |
| 20260507134035 | 27 | 0 | 0.0 | 1.0 | 0.00 | 0.19 | 0.00 | 74 | 1026.9 |
| 20260507133537 | 26 | 0 | 0.0 | 2.0 | 0.00 | 0.19 | 0.00 | 75 | 1026.9 |
| 20260507133125 | 26 | 190 | 0.0 | 2.0 | 0.00 | 0.19 | 0.00 | 74 | 1026.8 |
| 20260507132537 | 26 | 0 | 0.0 | 0.0 | 0.00 | 0.19 | 0.00 | 75 | 1026.9 |
| 20260507132037 | 27 | 0 | 0.0 | 0.0 | 0.00 | 0.19 | 0.00 | 72 | 1026.8 |
| 20260507131547 | 28 | 0 | 0.0 | 0.0 | 0.00 | 0.19 | 0.00 | 76 | 1026.8 |
| 20260507131038 | 26 | 0 | 0.0 | 0.0 | 0.00 | 0.19 | 0.00 | 80 | 1026.8 |
| 20260507130538 | 24 | 0 | 0.0 | 0.0 | 0.00 | 0.19 | 0.00 | 82 | 1026.7 |
| 20260507125537 | 22 | 0 | 0.0 | 0.0 | 0.00 | 0.21 | 0.00 | 82 | 1026.8 |
| 20260507125038 | 21 | 0 | 0.0 | 0.0 | 0.00 | 0.21 | 0.00 | 84 | 1026.7 |
| 20260507124556 | 21 | 0 | 0.0 | 0.0 | 0.00 | 0.21 | 0.00 | 84 | 1026.6 |
| 20260507124037 | 20 | 0 | 0.0 | 0.0 | 0.00 | 0.21 | 0.00 | 85 | 1026.6 |
| 20260507123537 | 20 | 0 | 0.0 | 0.0 | 0.00 | 0.21 | 0.00 | 85 | 1026.6 |
| 20260507123051 | 20 | 0 | 0.0 | 0.0 | 0.00 | 0.21 | 0.00 | 84 | 1026.4 |
| 20260507122537 | 20 | 0 | 0.0 | 0.0 | 0.00 | 0.21 | 0.00 | 84 | 1026.3 |
| 20260507122037 | 20 | 0 | 0.0 | 0.0 | 0.00 | 0.21 | 0.00 | 84 | 1026.3 |
| 20260507121550 | 20 | 0 | 0.0 | 0.0 | 0.00 | 0.21 | 0.00 | 84 | 1026.2 |
| 20260507121037 | 20 | 0 | 0.0 | 0.0 | 0.00 | 0.21 | 0.00 | 84 | 1026.2 |
| 20260507120536 | 20 | 0 | 0.0 | 0.0 | 0.00 | 0.21 | 0.00 | 83 | 1026.1 |
| 20260507120049 | 21 | 0 | 0.0 | 0.0 | 0.00 | 0.21 | 0.00 | 83 | 1026.2 |
| 20260507115537 | 21 | 0 | 0.0 | 0.0 | 0.00 | 0.23 | 0.00 | 83 | 1026.2 |
| 20260507115038 | 21 | 0 | 0.0 | 0.0 | 0.00 | 0.23 | 0.00 | 83 | 1026.2 |
| 20260507114600 | 21 | 0 | 0.0 | 0.0 | 0.00 | 0.23 | 0.00 | 83 | 1026.3 |
| 20260507114039 | 21 | 0 | 0.0 | 1.0 | 0.00 | 0.23 | 0.00 | 82 | 1026.2 |
| 20260507113538 | 21 | 0 | 0.0 | 1.0 | 0.00 | 0.23 | 0.00 | 82 | 1026.2 |
| 20260507113051 | 21 | 190 | 0.0 | 1.0 | 0.00 | 0.23 | 0.00 | 82 | 1026.1 |
| 20260507112537 | 21 | 0 | 0.0 | 1.0 | 0.00 | 0.23 | 0.00 | 83 | 1026.0 |
| 20260507112041 | 21 | 0 | 0.0 | 1.0 | 0.00 | 0.23 | 0.00 | 83 | 1025.9 |
| 20260507111551 | 21 | 190 | 0.0 | 0.0 | 0.00 | 0.23 | 0.00 | 83 | 1025.9 |
| 20260507111037 | 21 | 0 | 0.0 | 0.0 | 0.00 | 0.23 | 0.00 | 82 | 1025.8 |
| 20260507110541 | 21 | 0 | 0.0 | 0.0 | 0.00 | 0.23 | 0.00 | 82 | 1025.8 |
| 20260507110045 | 21 | 0 | 0.0 | 1.0 | 0.00 | 0.23 | 0.00 | 82 | 1025.9 |
| 20260507105536 | 21 | 190 | 0.0 | 1.0 | 0.00 | 0.25 | 0.00 | 81 | 1026.0 |
| 20260507105037 | 22 | 0 | 0.0 | 1.0 | 0.00 | 0.25 | 0.00 | 81 | 1026.1 |
| 20260507104547 | 22 | 0 | 0.0 | 1.0 | 0.00 | 0.25 | 0.00 | 82 | 1026.1 |
| 20260507104037 | 22 | 190 | 0.0 | 1.0 | 0.00 | 0.25 | 0.00 | 82 | 1026.1 |
| 20260507103539 | 23 | 0 | 0.0 | 0.0 | 0.00 | 0.25 | 0.00 | 83 | 1026.0 |
| 20260507103051 | 23 | 0 | 0.0 | 0.0 | 0.00 | 0.25 | 0.00 | 83 | 1026.1 |
| 20260507102537 | 23 | 0 | 0.0 | 0.0 | 0.00 | 0.25 | 0.00 | 83 | 1026.0 |
| 20260507102039 | 23 | 190 | 0.0 | 0.0 | 0.00 | 0.25 | 0.00 | 83 | 1026.0 |
| 20260507101548 | 23 | 0 | 0.0 | 0.0 | 0.00 | 0.25 | 0.00 | 83 | 1026.1 |
| 20260507101036 | 22 | 0 | 0.0 | 0.0 | 0.00 | 0.25 | 0.00 | 82 | 1026.1 |
| 20260507100535 | 23 | 0 | 0.0 | 0.0 | 0.00 | 0.25 | 0.00 | 82 | 1026.1 |
| 20260507100050 | 23 | 0 | 0.0 | 0.0 | 0.00 | 0.25 | 0.00 | 82 | 1026.0 |
| 20260507095535 | 23 | 0 | 0.0 | 0.0 | 0.00 | 0.25 | 0.00 | 82 | 1025.9 |
| 20260507095036 | 23 | 0 | 0.0 | 0.0 | 0.00 | 0.25 | 0.00 | 83 | 1025.9 |
| 20260507094557 | 23 | 0 | 0.0 | 0.0 | 0.00 | 0.25 | 0.00 | 82 | 1026.0 |
| 20260507094035 | 23 | 0 | 0.0 | 0.0 | 0.00 | 0.25 | 0.00 | 82 | 1025.9 |
| 20260507093535 | 23 | 190 | 0.0 | 0.0 | 0.00 | 0.25 | 0.00 | 82 | 1025.8 |
| 20260507093049 | 23 | 0 | 0.0 | 0.0 | 0.00 | 0.25 | 0.00 | 82 | 1025.9 |
| 20260507092535 | 23 | 0 | 0.0 | 0.0 | 0.00 | 0.25 | 0.00 | 82 | 1025.7 |
| 20260507092035 | 23 | 0 | 0.0 | 0.0 | 0.00 | 0.25 | 0.00 | 82 | 1025.7 |
| 20260507091551 | 23 | 0 | 0.0 | 0.0 | 0.00 | 0.25 | 0.00 | 82 | 1025.6 |
| 20260507091035 | 23 | 0 | 0.0 | 0.0 | 0.00 | 0.25 | 0.00 | 82 | 1025.6 |
| 20260507090534 | 23 | 0 | 0.0 | 0.0 | 0.00 | 0.25 | 0.00 | 81 | 1025.6 |
| 20260507090045 | 24 | 0 | 0.0 | 0.0 | 0.00 | 0.25 | 0.00 | 80 | 1025.7 |
| 20260507085538 | 24 | 0 | 0.0 | 1.0 | 0.00 | 0.25 | 0.00 | 79 | 1025.6 |
| 20260507085036 | 24 | 0 | 0.0 | 1.0 | 0.00 | 0.25 | 0.00 | 79 | 1025.6 |
| 20260507084549 | 25 | 0 | 0.0 | 1.0 | 0.00 | 0.25 | 0.00 | 79 | 1025.5 |
| 20260507084035 | 24 | 190 | 0.0 | 0.0 | 0.00 | 0.25 | 0.00 | 79 | 1025.5 |
| 20260507083535 | 25 | 0 | 0.0 | 0.0 | 0.00 | 0.25 | 0.00 | 78 | 1025.3 |
| 20260507083046 | 25 | 190 | 0.0 | 0.0 | 0.00 | 0.25 | 0.00 | 79 | 1025.2 |
| 20260507082535 | 24 | 0 | 0.0 | 0.0 | 0.00 | 0.25 | 0.00 | 78 | 1025.3 |
| 20260507082036 | 25 | 0 | 0.0 | 0.0 | 0.00 | 0.25 | 0.00 | 78 | 1025.3 |
| 20260507081544 | 25 | 0 | 0.0 | 0.0 | 0.00 | 0.25 | 0.00 | 78 | 1025.5 |
| 20260507081035 | 25 | 0 | 0.0 | 0.0 | 0.00 | 0.25 | 0.00 | 78 | 1025.7 |
| 20260507080536 | 25 | 0 | 0.0 | 0.0 | 0.00 | 0.25 | 0.00 | 77 | 1025.6 |
| 20260507080050 | 25 | 0 | 0.0 | 0.0 | 0.00 | 0.25 | 0.00 | 77 | 1025.7 |
| 20260507075535 | 26 | 0 | 0.0 | 1.0 | 0.00 | 0.25 | 0.00 | 77 | 1025.7 |
| 20260507075036 | 26 | 0 | 0.0 | 1.0 | 0.00 | 0.25 | 0.00 | 77 | 1025.6 |
| 20260507074552 | 26 | 0 | 0.0 | 0.0 | 0.00 | 0.25 | 0.00 | 77 | 1025.5 |
| 20260507074038 | 26 | 0 | 0.0 | 1.0 | 0.00 | 0.25 | 0.00 | 77 | 1025.2 |
| 20260507073536 | 26 | 0 | 0.0 | 1.0 | 0.00 | 0.25 | 0.00 | 77 | 1025.1 |
| 20260507073056 | 26 | 190 | 0.0 | 0.0 | 0.00 | 0.25 | 0.00 | 78 | 1025.2 |
| 20260507072536 | 26 | 0 | 0.0 | 0.0 | 0.00 | 0.25 | 0.00 | 79 | 1025.1 |
| 20260507072035 | 26 | 190 | 0.0 | 0.0 | 0.00 | 0.25 | 0.00 | 80 | 1025.1 |
| 20260507071547 | 26 | 0 | 0.0 | 0.0 | 0.00 | 0.25 | 0.00 | 80 | 1025.2 |
| 20260507071037 | 26 | 0 | 0.0 | 0.0 | 0.00 | 0.25 | 0.00 | 78 | 1025.3 |
| 20260507070538 | 26 | 0 | 0.0 | 0.0 | 0.00 | 0.25 | 0.00 | 77 | 1025.2 |
| 20260507070054 | 26 | 0 | 0.0 | 0.0 | 0.00 | 0.25 | 0.00 | 77 | 1025.1 |
| 20260507065541 | 26 | 0 | 0.0 | 0.0 | 0.00 | 0.25 | 0.00 | 77 | 1025.3 |
| 20260507065039 | 26 | 0 | 0.0 | 0.0 | 0.00 | 0.25 | 0.00 | 77 | 1025.3 |
| 20260507064553 | 27 | 0 | 0.0 | 0.0 | 0.00 | 0.25 | 0.00 | 76 | 1025.2 |
| 20260507064041 | 27 | 0 | 0.0 | 0.0 | 0.00 | 0.25 | 0.00 | 75 | 1025.1 |
| 20260507063540 | 27 | 0 | 0.0 | 0.0 | 0.00 | 0.25 | 0.00 | 76 | 1025.1 |
| 20260507063043 | 27 | 0 | 0.0 | 0.0 | 0.00 | 0.25 | 0.00 | 77 | 1025.0 |
| 20260507062537 | 27 | 0 | 0.0 | 0.0 | 0.00 | 0.25 | 0.00 | 78 | 1025.1 |
| 20260507062037 | 27 | 0 | 0.0 | 0.0 | 0.00 | 0.25 | 0.00 | 78 | 1025.2 |
| 20260507061545 | 27 | 0 | 0.0 | 0.0 | 0.00 | 0.25 | 0.00 | 77 | 1025.1 |
| 20260507061036 | 28 | 0 | 0.0 | 0.0 | 0.00 | 0.25 | 0.00 | 77 | 1025.2 |
| 20260507060538 | 28 | 0 | 0.0 | 0.0 | 0.00 | 0.25 | 0.00 | 77 | 1025.1 |
| 20260507060039 | 28 | 0 | 0.0 | 0.0 | 0.00 | 0.25 | 0.00 | 75 | 1025.1 |
| 20260507055539 | 28 | 0 | 0.0 | 1.0 | 0.00 | 0.25 | 0.25 | 75 | 1025.0 |
| 20260507055038 | 28 | 0 | 0.0 | 1.0 | 0.00 | 0.25 | 0.25 | 75 | 1025.0 |
| 20260507054548 | 28 | 0 | 0.0 | 0.0 | 0.00 | 0.25 | 0.25 | 75 | 1024.9 |
| 20260507054038 | 28 | 0 | 0.0 | 0.0 | 0.00 | 0.25 | 0.25 | 76 | 1024.9 |
| 20260507053538 | 29 | 0 | 0.0 | 2.0 | 0.00 | 0.25 | 0.25 | 74 | 1024.9 |
| 20260507053045 | 29 | 0 | 0.0 | 2.0 | 0.00 | 0.25 | 0.25 | 74 | 1025.1 |
| 20260507052540 | 29 | 0 | 0.0 | 1.0 | 0.00 | 0.25 | 0.25 | 73 | 1025.0 |
| 20260507052038 | 29 | 0 | 0.0 | 1.0 | 0.00 | 0.25 | 0.25 | 74 | 1024.8 |
| 20260507051551 | 29 | 0 | 0.0 | 0.0 | 0.00 | 0.25 | 0.25 | 73 | 1024.9 |
| 20260507051036 | 29 | 0 | 0.0 | 0.0 | 0.00 | 0.25 | 0.25 | 73 | 1024.9 |
| 20260507050537 | 29 | 0 | 0.0 | 0.0 | 0.00 | 0.25 | 0.25 | 72 | 1024.8 |
| 20260507050051 | 30 | 0 | 0.0 | 0.0 | 0.00 | 0.25 | 0.25 | 71 | 1024.7 |
| 20260507045537 | 30 | 0 | 0.0 | 3.0 | 0.00 | 0.25 | 0.25 | 71 | 1024.8 |
| 20260507045039 | 30 | 0 | 1.0 | 3.0 | 0.00 | 0.25 | 0.25 | 71 | 1024.7 |
| 20260507044559 | 30 | 0 | 0.0 | 1.0 | 0.00 | 0.25 | 0.25 | 71 | 1024.5 |